Language: 


Des rapports , des résumés tant et plus, au choix de chacun....


Données statistiques de la station
Quotidien Rapport Février 17, 2017 Unités:  Métrique    Anglais   les deux
« Précédent Jour
Suivant Jour »
Quotidien Hebdomadaire Mensuel Annuel Actuel
  Haut: Bas: Moyen:
Température: 13.1 °C 0.0 °C 8.2 °C
Pt de rosée: 10.0 °C 4.6 °C 7 °C
Humidité: 98 % 0 % 92 %
Vitesse du vent: 16.9 km/h 0.0 km/h 5.8 km/h
Rafales: 21.2 km/h - -
Vent:- - WSW
Pression: 1028.0 hPa 0.0 hPa -
Précipitation: 0.0 mm    
Historical Graphs
 
 
Données statistiques pour Février 17, 2017
Heure Température Point de rosée Pression Vent Vitesse du vent Refales Humidité Pluie (taux horaire)
00:03 6.3 °C 5.8 °C 1027.0 hPa West 4.7 km/h 7.9 km/h 97 % 0.0 mm
00:08 6.2 °C 5.7 °C 1027.0 hPa West 6.4 km/h 9.0 km/h 97 % 0.0 mm
00:13 6.2 °C 5.7 °C 1027.0 hPa WSW 8.7 km/h 9.0 km/h 97 % 0.0 mm
00:18 6.0 °C 5.6 °C 1027.0 hPa WSW 7.6 km/h 8.7 km/h 97 % 0.0 mm
00:23 5.9 °C 5.4 °C 1027.0 hPa West 7.9 km/h 9.3 km/h 97 % 0.0 mm
00:28 5.9 °C 5.4 °C 1027.0 hPa WSW 7.9 km/h 9.3 km/h 97 % 0.0 mm
00:33 5.9 °C 5.6 °C 1027.0 hPa WSW 6.9 km/h 10.1 km/h 98 % 0.0 mm
00:38 5.9 °C 5.6 °C 1026.0 hPa WSW 6.4 km/h 10.1 km/h 98 % 0.0 mm
00:44 5.8 °C 5.5 °C 1026.0 hPa WSW 8.7 km/h 9.3 km/h 98 % 0.0 mm
00:49 5.9 °C 5.6 °C 1026.0 hPa WSW 9.3 km/h 10.5 km/h 98 % 0.0 mm
00:54 5.9 °C 5.6 °C 1027.0 hPa West 9.3 km/h 10.5 km/h 98 % 0.0 mm
00:59 5.9 °C 5.6 °C 1027.0 hPa WSW 8.7 km/h 10.5 km/h 98 % 0.0 mm
01:04 5.8 °C 5.5 °C 1027.0 hPa West 8.7 km/h 10.1 km/h 98 % 0.0 mm
01:09 5.8 °C 5.5 °C 1027.0 hPa West 9.0 km/h 10.1 km/h 98 % 0.0 mm
01:14 5.9 °C 5.6 °C 1027.0 hPa West 10.5 km/h 10.5 km/h 98 % 0.0 mm
01:19 5.9 °C 5.6 °C 1027.0 hPa WSW 9.0 km/h 10.5 km/h 98 % 0.0 mm
01:24 6.0 °C 5.7 °C 1027.0 hPa West 9.7 km/h 10.5 km/h 98 % 0.0 mm
01:29 6.0 °C 5.7 °C 1027.0 hPa West 9.3 km/h 10.5 km/h 98 % 0.0 mm
01:34 6.0 °C 5.7 °C 1027.0 hPa West 10.1 km/h 10.5 km/h 98 % 0.0 mm
01:39 6.0 °C 5.7 °C 1027.0 hPa West 9.3 km/h 10.8 km/h 98 % 0.0 mm
01:44 6.0 °C 5.7 °C 1027.0 hPa West 9.3 km/h 10.8 km/h 98 % 0.0 mm
01:49 6.0 °C 5.7 °C 1027.0 hPa West 10.1 km/h 10.5 km/h 98 % 0.0 mm
01:54 6.0 °C 5.7 °C 1027.0 hPa WSW 10.1 km/h 11.9 km/h 98 % 0.0 mm
01:59 6.0 °C 5.7 °C 1027.0 hPa West 10.5 km/h 11.9 km/h 98 % 0.0 mm
02:04 6.1 °C 5.8 °C 1027.0 hPa West 7.9 km/h 10.5 km/h 98 % 0.0 mm
02:09 6.0 °C 5.7 °C 1027.0 hPa West 10.5 km/h 10.5 km/h 98 % 0.0 mm
02:14 6.0 °C 5.7 °C 1027.0 hPa West 9.0 km/h 10.5 km/h 98 % 0.0 mm
02:19 6.1 °C 5.8 °C 1027.0 hPa West 9.7 km/h 10.5 km/h 98 % 0.0 mm
02:24 6.2 °C 5.9 °C 1027.0 hPa West 9.3 km/h 10.5 km/h 98 % 0.0 mm
02:29 6.1 °C 5.8 °C 1027.0 hPa West 7.9 km/h 11.6 km/h 98 % 0.0 mm
02:34 6.1 °C 5.8 °C 1027.0 hPa WSW 10.8 km/h 11.6 km/h 98 % 0.0 mm
02:39 6.0 °C 5.7 °C 1027.0 hPa West 10.1 km/h 12.6 km/h 98 % 0.0 mm
02:44 6.0 °C 5.7 °C 1027.0 hPa West 10.1 km/h 12.6 km/h 98 % 0.0 mm
02:49 6.0 °C 5.7 °C 1027.0 hPa WSW 8.7 km/h 11.6 km/h 98 % 0.0 mm
02:54 5.9 °C 5.6 °C 1027.0 hPa WSW 6.9 km/h 11.6 km/h 98 % 0.0 mm
03:00 5.7 °C 5.4 °C 1027.0 hPa West 9.3 km/h 10.5 km/h 98 % 0.0 mm
03:06 0.0 °C 5.4 °C 0.0 hPa West 9.3 km/h 10.5 km/h 0 % 0.0 mm
03:11 5.7 °C 5.4 °C 1027.0 hPa West 8.7 km/h 9.3 km/h 98 % 0.0 mm
03:16 5.6 °C 5.3 °C 1027.0 hPa WSW 6.9 km/h 9.3 km/h 98 % 0.0 mm
03:21 5.6 °C 5.3 °C 1027.0 hPa West 6.1 km/h 8.7 km/h 98 % 0.0 mm
03:26 5.7 °C 5.4 °C 1027.0 hPa West 7.2 km/h 7.9 km/h 98 % 0.0 mm
03:31 5.5 °C 5.2 °C 1027.0 hPa WSW 6.9 km/h 7.6 km/h 98 % 0.0 mm
03:36 5.3 °C 5.0 °C 1027.0 hPa WSW 6.4 km/h 7.2 km/h 98 % 0.0 mm
03:41 5.3 °C 5.0 °C 1027.0 hPa WSW 6.4 km/h 6.9 km/h 98 % 0.0 mm
03:46 5.3 °C 5.0 °C 1027.0 hPa WSW 7.9 km/h 7.9 km/h 98 % 0.0 mm
03:51 5.3 °C 5.0 °C 1027.0 hPa WSW 8.7 km/h 10.1 km/h 98 % 0.0 mm
03:56 5.6 °C 5.3 °C 1027.0 hPa WSW 9.7 km/h 10.1 km/h 98 % 0.0 mm
04:01 5.7 °C 5.4 °C 1027.0 hPa WSW 9.7 km/h 10.5 km/h 98 % 0.0 mm
04:06 5.8 °C 5.5 °C 1027.0 hPa WSW 10.1 km/h 11.9 km/h 98 % 0.0 mm
04:11 5.9 °C 5.6 °C 1027.0 hPa WSW 9.7 km/h 11.9 km/h 98 % 0.0 mm
04:16 6.0 °C 5.7 °C 1027.0 hPa WSW 8.7 km/h 11.6 km/h 98 % 0.0 mm
04:21 6.1 °C 5.8 °C 1027.0 hPa West 10.5 km/h 11.9 km/h 98 % 0.0 mm
04:26 6.2 °C 5.9 °C 1026.0 hPa WSW 10.8 km/h 12.2 km/h 98 % 0.0 mm
04:31 6.3 °C 6.0 °C 1026.0 hPa West 10.1 km/h 12.2 km/h 98 % 0.0 mm
04:36 6.4 °C 6.1 °C 1026.0 hPa WSW 12.2 km/h 14.0 km/h 98 % 0.0 mm
04:41 6.4 °C 6.2 °C 1026.0 hPa WSW 6.1 km/h 14.0 km/h 98 % 0.0 mm
04:46 6.4 °C 6.2 °C 1026.0 hPa West 8.7 km/h 12.2 km/h 98 % 0.0 mm
04:51 6.4 °C 6.2 °C 1026.0 hPa WSW 9.0 km/h 9.7 km/h 98 % 0.0 mm
04:56 6.4 °C 6.2 °C 1026.0 hPa WSW 8.7 km/h 9.3 km/h 98 % 0.0 mm
05:02 6.6 °C 6.3 °C 1026.0 hPa WSW 9.7 km/h 10.1 km/h 98 % 0.0 mm
05:07 6.6 °C 6.3 °C 1026.0 hPa WSW 9.7 km/h 10.1 km/h 98 % 0.0 mm
05:12 6.6 °C 6.3 °C 1026.0 hPa WSW 8.7 km/h 10.1 km/h 98 % 0.0 mm
05:17 6.6 °C 6.3 °C 1026.0 hPa WSW 6.1 km/h 10.1 km/h 98 % 0.0 mm
05:22 6.7 °C 6.4 °C 1026.0 hPa WSW 9.7 km/h 10.5 km/h 98 % 0.0 mm
05:27 6.7 °C 6.4 °C 1026.0 hPa West 6.9 km/h 10.5 km/h 98 % 0.0 mm
05:32 6.8 °C 6.4 °C 1026.0 hPa West 8.7 km/h 9.7 km/h 98 % 0.0 mm
05:37 6.8 °C 6.6 °C 1026.0 hPa WSW 7.9 km/h 9.7 km/h 98 % 0.0 mm
05:42 6.8 °C 6.6 °C 1026.0 hPa West 7.9 km/h 9.7 km/h 98 % 0.0 mm
05:47 6.9 °C 6.7 °C 1026.0 hPa West 6.4 km/h 9.7 km/h 98 % 0.0 mm
05:52 6.9 °C 6.7 °C 1026.0 hPa WSW 5.8 km/h 9.0 km/h 98 % 0.0 mm
05:57 6.9 °C 6.7 °C 1026.0 hPa WSW 5.5 km/h 9.0 km/h 98 % 0.0 mm
06:02 6.8 °C 6.6 °C 1026.0 hPa WSW 6.4 km/h 7.6 km/h 98 % 0.0 mm
06:07 6.8 °C 6.6 °C 1026.0 hPa WSW 6.4 km/h 7.9 km/h 98 % 0.0 mm
06:12 6.9 °C 6.7 °C 1026.0 hPa WSW 8.7 km/h 9.0 km/h 98 % 0.0 mm
06:17 6.9 °C 6.7 °C 1026.0 hPa WSW 8.7 km/h 9.7 km/h 98 % 0.0 mm
06:22 6.9 °C 6.7 °C 1026.0 hPa West 7.9 km/h 9.7 km/h 98 % 0.0 mm
06:27 6.8 °C 6.6 °C 1026.0 hPa WSW 5.8 km/h 9.3 km/h 98 % 0.0 mm
06:32 6.8 °C 6.6 °C 1026.0 hPa West 5.5 km/h 9.0 km/h 98 % 0.0 mm
06:37 6.8 °C 6.4 °C 1026.0 hPa West 5.8 km/h 6.9 km/h 98 % 0.0 mm
06:42 6.7 °C 6.4 °C 1026.0 hPa WSW 5.0 km/h 6.4 km/h 98 % 0.0 mm
06:47 6.4 °C 6.1 °C 1026.0 hPa WSW 5.0 km/h 6.4 km/h 98 % 0.0 mm
06:52 6.1 °C 5.8 °C 1026.0 hPa WSW 4.7 km/h 5.8 km/h 98 % 0.0 mm
06:57 5.9 °C 5.6 °C 1026.0 hPa WSW 4.7 km/h 5.8 km/h 98 % 0.0 mm
07:02 5.7 °C 5.4 °C 1026.0 hPa WSW 4.3 km/h 5.8 km/h 98 % 0.0 mm
07:07 5.7 °C 5.4 °C 1026.0 hPa West 6.1 km/h 6.1 km/h 98 % 0.0 mm
07:12 5.7 °C 5.4 °C 1026.0 hPa West 6.1 km/h 7.6 km/h 98 % 0.0 mm
07:17 5.7 °C 5.4 °C 1026.0 hPa West 6.1 km/h 7.6 km/h 98 % 0.0 mm
07:22 5.8 °C 5.5 °C 1026.0 hPa West 6.1 km/h 6.9 km/h 98 % 0.0 mm
07:27 5.7 °C 5.4 °C 1026.0 hPa West 7.9 km/h 7.9 km/h 98 % 0.0 mm
07:32 5.6 °C 5.3 °C 1026.0 hPa West 5.8 km/h 8.7 km/h 98 % 0.0 mm
07:37 5.4 °C 5.1 °C 1026.0 hPa West 5.8 km/h 8.7 km/h 98 % 0.0 mm
07:42 5.1 °C 4.8 °C 1026.0 hPa WSW 4.7 km/h 6.4 km/h 98 % 0.0 mm
07:47 5.0 °C 4.7 °C 1026.0 hPa WSW 5.5 km/h 5.8 km/h 98 % 0.0 mm
07:52 4.9 °C 4.6 °C 1026.0 hPa WSW 4.7 km/h 5.8 km/h 98 % 0.0 mm
07:57 4.9 °C 4.6 °C 1026.0 hPa WSW 5.0 km/h 5.8 km/h 98 % 0.0 mm
08:02 5.0 °C 4.7 °C 1026.0 hPa West 6.1 km/h 6.9 km/h 98 % 0.0 mm
08:07 5.3 °C 5.0 °C 1026.0 hPa West 7.9 km/h 9.3 km/h 98 % 0.0 mm
08:12 5.5 °C 5.2 °C 1026.0 hPa West 6.4 km/h 9.3 km/h 98 % 0.0 mm
08:17 5.6 °C 5.3 °C 1026.0 hPa West 6.4 km/h 7.9 km/h 98 % 0.0 mm
08:22 5.7 °C 5.4 °C 1027.0 hPa West 6.4 km/h 9.7 km/h 98 % 0.0 mm
08:27 5.6 °C 5.3 °C 1027.0 hPa West 8.7 km/h 9.7 km/h 98 % 0.0 mm
08:32 5.6 °C 5.3 °C 1027.0 hPa West 10.1 km/h 10.1 km/h 98 % 0.0 mm
08:37 5.7 °C 5.4 °C 1027.0 hPa West 7.9 km/h 10.1 km/h 98 % 0.0 mm
08:42 5.8 °C 5.5 °C 1027.0 hPa West 6.4 km/h 10.1 km/h 98 % 0.0 mm
08:47 6.1 °C 5.8 °C 1027.0 hPa West 6.4 km/h 9.7 km/h 98 % 0.0 mm
08:52 6.3 °C 6.0 °C 1027.0 hPa WNW 10.5 km/h 10.5 km/h 98 % 0.0 mm
08:57 6.6 °C 6.3 °C 1027.0 hPa WNW 6.4 km/h 10.5 km/h 98 % 0.0 mm
09:02 6.8 °C 6.4 °C 1027.0 hPa West 11.6 km/h 11.6 km/h 98 % 0.0 mm
09:07 6.8 °C 6.6 °C 1027.0 hPa West 8.7 km/h 11.9 km/h 98 % 0.0 mm
09:12 7.1 °C 6.8 °C 1027.0 hPa West 9.7 km/h 11.9 km/h 98 % 0.0 mm
09:17 7.3 °C 7.1 °C 1027.0 hPa WSW 7.9 km/h 10.5 km/h 98 % 0.0 mm
09:22 7.4 °C 7.2 °C 1027.0 hPa West 10.1 km/h 10.5 km/h 98 % 0.0 mm
09:27 7.7 °C 7.4 °C 1027.0 hPa West 10.1 km/h 11.9 km/h 98 % 0.0 mm
09:32 8.1 °C 7.7 °C 1027.0 hPa WSW 10.1 km/h 14.8 km/h 98 % 0.0 mm
09:37 8.2 °C 7.9 °C 1026.0 hPa WSW 13.7 km/h 14.8 km/h 98 % 0.0 mm
09:43 8.3 °C 8.1 °C 1026.0 hPa WSW 9.3 km/h 16.3 km/h 98 % 0.0 mm
09:48 8.4 °C 8.1 °C 1026.0 hPa West 13.0 km/h 16.3 km/h 98 % 0.0 mm
09:53 8.5 °C 8.2 °C 1027.0 hPa WSW 13.7 km/h 17.7 km/h 98 % 0.0 mm
09:58 8.6 °C 8.3 °C 1027.0 hPa West 16.9 km/h 20.6 km/h 98 % 0.0 mm
10:03 8.8 °C 8.5 °C 1027.0 hPa West 15.8 km/h 20.6 km/h 98 % 0.0 mm
10:08 9.0 °C 8.7 °C 1027.0 hPa West 13.0 km/h 16.9 km/h 98 % 0.0 mm
10:13 9.1 °C 8.8 °C 1027.0 hPa SW 5.8 km/h 17.2 km/h 98 % 0.0 mm
10:18 9.4 °C 9.1 °C 1027.0 hPa West 6.9 km/h 17.2 km/h 98 % 0.0 mm
10:23 9.6 °C 9.3 °C 1027.0 hPa West 12.2 km/h 17.2 km/h 98 % 0.0 mm
10:28 9.8 °C 9.3 °C 1027.0 hPa West 8.7 km/h 17.2 km/h 97 % 0.0 mm
10:33 10.1 °C 9.7 °C 1027.0 hPa WNW 8.7 km/h 21.2 km/h 97 % 0.0 mm
10:38 10.1 °C 9.7 °C 1027.0 hPa West 13.0 km/h 21.2 km/h 97 % 0.0 mm
10:43 10.2 °C 9.6 °C 1027.0 hPa West 8.7 km/h 16.3 km/h 96 % 0.0 mm
10:48 10.4 °C 9.8 °C 1027.0 hPa NNW 10.5 km/h 15.8 km/h 96 % 0.0 mm
10:53 10.6 °C 10.0 °C 1027.0 hPa West 16.3 km/h 16.3 km/h 96 % 0.0 mm
10:58 10.6 °C 10.0 °C 1027.0 hPa West 9.0 km/h 17.2 km/h 96 % 0.0 mm
11:03 10.6 °C 9.8 °C 1027.0 hPa West 10.5 km/h 17.2 km/h 95 % 0.0 mm
11:08 10.5 °C 9.6 °C 1026.0 hPa West 9.3 km/h 16.3 km/h 94 % 0.0 mm
11:13 10.6 °C 9.7 °C 1026.0 hPa West 5.5 km/h 14.0 km/h 94 % 0.0 mm
11:18 10.7 °C 9.6 °C 1026.0 hPa WNW 11.9 km/h 16.9 km/h 93 % 0.0 mm
11:23 10.7 °C 9.4 °C 1027.0 hPa West 4.7 km/h 16.9 km/h 92 % 0.0 mm
11:28 10.8 °C 9.6 °C 1027.0 hPa West 11.1 km/h 13.7 km/h 92 % 0.0 mm
11:33 11.0 °C 9.6 °C 1027.0 hPa NNW 6.1 km/h 14.0 km/h 91 % 0.0 mm
11:38 11.1 °C 9.7 °C 1027.0 hPa NNE 6.1 km/h 14.0 km/h 91 % 0.0 mm
11:43 11.4 °C 9.9 °C 1027.0 hPa WSW 11.1 km/h 11.1 km/h 91 % 0.0 mm
11:48 11.4 °C 9.7 °C 1027.0 hPa WSW 3.5 km/h 11.1 km/h 89 % 0.0 mm
11:53 11.4 °C 9.2 °C 1027.0 hPa West 10.5 km/h 11.1 km/h 86 % 0.0 mm
11:58 11.3 °C 8.7 °C 1027.0 hPa NNW 10.5 km/h 12.6 km/h 84 % 0.0 mm
12:03 11.2 °C 8.9 °C 1027.0 hPa WSW 4.7 km/h 12.6 km/h 86 % 0.0 mm
12:08 11.4 °C 9.4 °C 1027.0 hPa WNW 7.9 km/h 10.5 km/h 87 % 0.0 mm
12:13 11.2 °C 8.7 °C 1027.0 hPa WNW 9.7 km/h 11.6 km/h 85 % 0.0 mm
12:18 11.1 °C 8.4 °C 1027.0 hPa WNW 9.7 km/h 11.6 km/h 84 % 0.0 mm
12:23 11.1 °C 8.4 °C 1027.0 hPa West 6.4 km/h 12.2 km/h 84 % 0.0 mm
12:28 11.1 °C 8.4 °C 1027.0 hPa NNE 2.6 km/h 12.2 km/h 84 % 0.0 mm
12:33 11.1 °C 8.7 °C 1027.0 hPa North 7.6 km/h 12.2 km/h 85 % 0.0 mm
12:38 11.0 °C 8.2 °C 1026.0 hPa NNW 6.4 km/h 12.2 km/h 83 % 0.0 mm
12:43 11.2 °C 8.6 °C 1026.0 hPa West 1.8 km/h 12.2 km/h 84 % 0.0 mm
12:48 11.1 °C 8.4 °C 1026.0 hPa West 6.1 km/h 11.9 km/h 84 % 0.0 mm
12:53 11.3 °C 8.7 °C 1026.0 hPa West 9.3 km/h 12.6 km/h 84 % 0.0 mm
12:58 11.6 °C 8.8 °C 1026.0 hPa WNW 7.9 km/h 16.3 km/h 83 % 0.0 mm
13:03 11.8 °C 9.2 °C 1026.0 hPa NNE 9.0 km/h 16.3 km/h 84 % 0.0 mm
13:08 11.8 °C 8.9 °C 1026.0 hPa SW 5.0 km/h 14.3 km/h 82 % 0.0 mm
13:13 11.8 °C 8.8 °C 1026.0 hPa West 9.7 km/h 14.3 km/h 82 % 0.0 mm
13:18 11.8 °C 8.6 °C 1026.0 hPa North 6.1 km/h 10.5 km/h 81 % 0.0 mm
13:23 11.8 °C 8.6 °C 1027.0 hPa NNW 4.0 km/h 10.5 km/h 81 % 0.0 mm
13:28 11.6 °C 8.2 °C 1027.0 hPa West 9.7 km/h 9.7 km/h 80 % 0.0 mm
13:33 11.8 °C 8.5 °C 1027.0 hPa NW 9.7 km/h 10.5 km/h 80 % 0.0 mm
13:38 11.8 °C 8.5 °C 1027.0 hPa WNW 9.7 km/h 13.0 km/h 80 % 0.0 mm
13:43 11.9 °C 8.6 °C 1027.0 hPa NW 3.2 km/h 13.0 km/h 80 % 0.0 mm
13:48 12.2 °C 9.0 °C 1027.0 hPa North 5.0 km/h 10.1 km/h 81 % 0.0 mm
13:53 12.2 °C 9.0 °C 1027.0 hPa WNW 2.6 km/h 10.1 km/h 81 % 0.0 mm
13:58 11.9 °C 8.4 °C 1027.0 hPa NNW 5.8 km/h 11.9 km/h 79 % 0.0 mm
14:03 11.8 °C 8.5 °C 1027.0 hPa WSW 6.9 km/h 11.9 km/h 80 % 0.0 mm
14:08 11.9 °C 8.6 °C 1027.0 hPa West 9.3 km/h 10.5 km/h 80 % 0.0 mm
14:13 11.8 °C 8.5 °C 1027.0 hPa NNW 9.0 km/h 12.6 km/h 80 % 0.0 mm
14:19 11.8 °C 8.4 °C 1027.0 hPa NNW 6.4 km/h 12.6 km/h 80 % 0.0 mm
14:24 11.8 °C 8.4 °C 1027.0 hPa South 4.0 km/h 10.5 km/h 80 % 0.0 mm
14:29 11.8 °C 8.4 °C 1027.0 hPa ENE 6.9 km/h 9.7 km/h 80 % 0.0 mm
14:34 11.7 °C 8.3 °C 1027.0 hPa WNW 5.5 km/h 9.3 km/h 80 % 0.0 mm
14:39 11.7 °C 8.2 °C 1028.0 hPa NNE 4.0 km/h 9.3 km/h 79 % 0.0 mm
14:44 11.7 °C 8.3 °C 1028.0 hPa WNW 1.8 km/h 9.3 km/h 80 % 0.0 mm
14:49 11.8 °C 8.4 °C 1028.0 hPa NW 4.3 km/h 9.7 km/h 80 % 0.0 mm
14:54 11.7 °C 8.3 °C 1027.0 hPa WNW 5.0 km/h 13.7 km/h 80 % 0.0 mm
14:59 11.7 °C 8.3 °C 1027.0 hPa NNW 6.9 km/h 13.7 km/h 80 % 0.0 mm
15:04 11.4 °C 7.9 °C 1027.0 hPa NNE 4.7 km/h 9.0 km/h 79 % 0.0 mm
15:09 11.4 °C 8.1 °C 1027.0 hPa North 4.3 km/h 11.6 km/h 80 % 0.0 mm
15:14 12.2 °C 9.0 °C 1027.0 hPa NNW 4.0 km/h 11.6 km/h 81 % 0.0 mm
15:19 12.2 °C 8.7 °C 1027.0 hPa North 5.5 km/h 13.7 km/h 79 % 0.0 mm
15:24 11.9 °C 8.4 °C 1027.0 hPa NNW 3.2 km/h 13.7 km/h 79 % 0.0 mm
15:29 12.2 °C 8.7 °C 1027.0 hPa WNW 5.5 km/h 9.7 km/h 79 % 0.0 mm
15:34 12.8 °C 9.1 °C 1027.0 hPa West 8.7 km/h 9.0 km/h 78 % 0.0 mm
15:39 13.1 °C 8.9 °C 1027.0 hPa NNW 5.5 km/h 13.0 km/h 76 % 0.0 mm
15:44 12.7 °C 8.4 °C 1027.0 hPa West 9.0 km/h 13.0 km/h 75 % 0.0 mm
15:49 12.2 °C 7.7 °C 1027.0 hPa WNW 5.5 km/h 12.2 km/h 74 % 0.0 mm
15:54 12.1 °C 7.8 °C 1027.0 hPa North 7.6 km/h 10.5 km/h 75 % 0.0 mm
15:59 11.8 °C 7.8 °C 1027.0 hPa West 2.1 km/h 7.9 km/h 76 % 0.0 mm
16:04 11.8 °C 7.8 °C 1027.0 hPa NNW 2.6 km/h 7.9 km/h 77 % 0.0 mm
16:09 11.7 °C 7.9 °C 1027.0 hPa NNW 5.0 km/h 7.9 km/h 78 % 0.0 mm
16:14 11.6 °C 7.8 °C 1027.0 hPa North 5.8 km/h 8.7 km/h 78 % 0.0 mm
16:19 11.3 °C 7.8 °C 1027.0 hPa North 4.7 km/h 9.3 km/h 79 % 0.0 mm
16:24 11.2 °C 7.7 °C 1027.0 hPa NE 6.1 km/h 9.3 km/h 79 % 0.0 mm
16:29 11.1 °C 7.8 °C 1027.0 hPa North 4.7 km/h 7.9 km/h 80 % 0.0 mm
16:34 11.0 °C 7.7 °C 1027.0 hPa Calm   7.9 km/h 80 % 0.0 mm
16:39 11.0 °C 7.7 °C 1027.0 hPa North 5.0 km/h 6.4 km/h 80 % 0.0 mm
16:44 10.9 °C 7.7 °C 1027.0 hPa North 4.3 km/h 9.7 km/h 81 % 0.0 mm
16:49 10.7 °C 7.6 °C 1027.0 hPa North 6.1 km/h 9.7 km/h 81 % 0.0 mm
16:54 10.7 °C 7.6 °C 1027.0 hPa NNE 6.1 km/h 8.7 km/h 81 % 0.0 mm
16:59 10.5 °C 7.6 °C 1027.0 hPa North 5.0 km/h 8.7 km/h 82 % 0.0 mm
17:04 10.4 °C 7.4 °C 1027.0 hPa North 4.0 km/h 7.6 km/h 82 % 0.0 mm
17:09 10.3 °C 7.3 °C 1026.0 hPa North 2.6 km/h 6.9 km/h 82 % 0.0 mm
17:14 10.2 °C 7.4 °C 1026.0 hPa Calm   6.9 km/h 83 % 0.0 mm
17:19 10.1 °C 7.3 °C 1026.0 hPa NNE 5.0 km/h 5.0 km/h 83 % 0.0 mm
17:24 10.1 °C 7.3 °C 1026.0 hPa WNW 5.5 km/h 6.4 km/h 83 % 0.0 mm
17:29 10.0 °C 7.4 °C 1026.0 hPa North 3.5 km/h 6.4 km/h 84 % 0.0 mm
17:35 10.0 °C 7.4 °C 1026.0 hPa NNW 3.2 km/h 5.8 km/h 84 % 0.0 mm
17:40 9.9 °C 7.3 °C 1027.0 hPa NNW 4.7 km/h 6.4 km/h 84 % 0.0 mm
17:45 9.9 °C 7.3 °C 1027.0 hPa NNE 3.2 km/h 6.4 km/h 84 % 0.0 mm
17:50 9.8 °C 7.2 °C 1027.0 hPa NNE 3.2 km/h 6.9 km/h 84 % 0.0 mm
17:55 9.7 °C 7.3 °C 1027.0 hPa North 7.6 km/h 7.6 km/h 85 % 0.0 mm
18:00 9.7 °C 7.3 °C 1027.0 hPa NNE 2.1 km/h 7.6 km/h 85 % 0.0 mm
18:05 9.6 °C 7.2 °C 1027.0 hPa North 4.3 km/h 5.8 km/h 85 % 0.0 mm
18:10 9.5 °C 7.3 °C 1027.0 hPa North 4.3 km/h 5.8 km/h 86 % 0.0 mm
18:15 9.4 °C 7.2 °C 1027.0 hPa NE 5.5 km/h 5.5 km/h 86 % 0.0 mm
18:20 9.3 °C 7.1 °C 1027.0 hPa NE 2.1 km/h 5.5 km/h 86 % 0.0 mm
18:25 9.3 °C 7.3 °C 1027.0 hPa NNE 2.1 km/h 5.0 km/h 87 % 0.0 mm
18:30 9.2 °C 7.2 °C 1027.0 hPa NE 3.5 km/h 5.0 km/h 87 % 0.0 mm
18:36 9.1 °C 7.2 °C 1027.0 hPa NE 2.1 km/h 4.0 km/h 88 % 0.0 mm
18:41 9.0 °C 7.1 °C 1027.0 hPa NE 2.6 km/h 4.3 km/h 88 % 0.0 mm
18:46 8.9 °C 7.2 °C 1027.0 hPa NNE 2.1 km/h 4.3 km/h 89 % 0.0 mm
18:51 8.9 °C 7.2 °C 1027.0 hPa NE 2.1 km/h 4.3 km/h 89 % 0.0 mm
18:57 8.8 °C 7.1 °C 1027.0 hPa Calm   4.0 km/h 89 % 0.0 mm
19:02 8.8 °C 7.1 °C 1027.0 hPa NNE 1.4 km/h 3.5 km/h 89 % 0.0 mm
19:07 8.7 °C 7.2 °C 1027.0 hPa NNE 2.1 km/h 2.6 km/h 90 % 0.0 mm
19:12 8.6 °C 7.1 °C 1026.0 hPa NNE 1.8 km/h 2.6 km/h 90 % 0.0 mm
19:17 8.6 °C 7.1 °C 1026.0 hPa Calm   2.1 km/h 90 % 0.0 mm
19:22 8.5 °C 7.2 °C 1026.0 hPa Calm   2.1 km/h 91 % 0.0 mm
19:27 8.4 °C 7.1 °C 1026.0 hPa Calm     91 % 0.0 mm
19:32 8.3 °C 6.9 °C 1026.0 hPa Calm     91 % 0.0 mm
19:37 8.2 °C 6.8 °C 1026.0 hPa NNE 2.6 km/h 3.5 km/h 91 % 0.0 mm
19:42 8.2 °C 6.8 °C 1026.0 hPa NNE 2.6 km/h 4.0 km/h 91 % 0.0 mm
19:47 8.2 °C 7.0 °C 1026.0 hPa Calm   4.0 km/h 92 % 0.0 mm
19:52 8.2 °C 7.0 °C 1027.0 hPa NNW 1.8 km/h 4.3 km/h 92 % 0.0 mm
19:57 8.2 °C 7.0 °C 1027.0 hPa WNW 2.6 km/h 4.3 km/h 92 % 0.0 mm
20:02 8.2 °C 7.2 °C 1027.0 hPa Calm   2.6 km/h 93 % 0.0 mm
20:07 8.2 °C 7.2 °C 1026.0 hPa Calm   1.8 km/h 93 % 0.0 mm
20:12 8.1 °C 7.1 °C 1026.0 hPa Calm     93 % 0.0 mm
20:17 8.1 °C 7.1 °C 1026.0 hPa NE 1.4 km/h 4.7 km/h 93 % 0.0 mm
20:22 8.1 °C 7.1 °C 1027.0 hPa WNW 2.6 km/h 4.7 km/h 93 % 0.0 mm
20:27 8.1 °C 7.0 °C 1027.0 hPa WNW 2.6 km/h 3.5 km/h 93 % 0.0 mm
20:32 8.1 °C 7.0 °C 1027.0 hPa Calm   3.5 km/h 93 % 0.0 mm
20:37 8.1 °C 7.0 °C 1027.0 hPa Calm   3.2 km/h 93 % 0.0 mm
20:42 7.9 °C 6.9 °C 1027.0 hPa Calm     93 % 0.0 mm
20:47 7.9 °C 7.1 °C 1027.0 hPa Calm     94 % 0.0 mm
20:52 7.9 °C 7.1 °C 1027.0 hPa Calm     94 % 0.0 mm
20:57 7.8 °C 6.9 °C 1027.0 hPa Calm     94 % 0.0 mm
21:02 7.8 °C 6.9 °C 1027.0 hPa Calm     94 % 0.0 mm
21:07 7.7 °C 6.8 °C 1027.0 hPa Calm     94 % 0.0 mm
21:12 7.7 °C 6.8 °C 1027.0 hPa Calm     94 % 0.0 mm
21:17 7.7 °C 7.0 °C 1027.0 hPa Calm     95 % 0.0 mm
21:22 7.7 °C 6.9 °C 1027.0 hPa Calm     95 % 0.0 mm
21:28 7.7 °C 6.9 °C 1027.0 hPa ENE 2.1 km/h 3.2 km/h 95 % 0.0 mm
21:33 7.7 °C 6.9 °C 1027.0 hPa Calm   3.2 km/h 95 % 0.0 mm
21:38 7.7 °C 6.9 °C 1027.0 hPa Calm   2.6 km/h 95 % 0.0 mm
21:43 7.7 °C 6.9 °C 1027.0 hPa Calm     95 % 0.0 mm
21:48 7.7 °C 6.9 °C 1027.0 hPa Calm     95 % 0.0 mm
21:53 7.7 °C 7.1 °C 1027.0 hPa Calm     96 % 0.0 mm
21:58 7.6 °C 6.9 °C 1027.0 hPa Calm     96 % 0.0 mm
22:03 7.6 °C 6.9 °C 1027.0 hPa Calm     96 % 0.0 mm
22:08 7.6 °C 6.9 °C 1027.0 hPa Calm     96 % 0.0 mm
22:13 7.6 °C 6.9 °C 1027.0 hPa Calm     96 % 0.0 mm
22:18 7.4 °C 6.8 °C 1027.0 hPa Calm     96 % 0.0 mm
22:23 7.4 °C 6.8 °C 1027.0 hPa Calm   2.6 km/h 96 % 0.0 mm
22:28 7.3 °C 6.8 °C 1027.0 hPa Calm   2.6 km/h 96 % 0.0 mm
22:33 7.3 °C 6.7 °C 1027.0 hPa Calm     96 % 0.0 mm
22:38 7.3 °C 6.7 °C 1027.0 hPa Calm     96 % 0.0 mm
22:43 7.2 °C 6.6 °C 1027.0 hPa Calm     96 % 0.0 mm
22:48 6.9 °C 6.4 °C 1027.0 hPa Calm     96 % 0.0 mm
22:53 6.8 °C 6.3 °C 1027.0 hPa Calm     96 % 0.0 mm
22:58 6.8 °C 6.2 °C 1027.0 hPa Calm   1.8 km/h 96 % 0.0 mm
23:03 6.7 °C 6.1 °C 1027.0 hPa Calm   1.8 km/h 96 % 0.0 mm
23:08 6.6 °C 6.0 °C 1026.0 hPa Calm     96 % 0.0 mm
23:13 6.4 °C 5.8 °C 1026.0 hPa South 3.2 km/h 3.2 km/h 96 % 0.0 mm
23:18 6.3 °C 5.7 °C 1026.0 hPa South 1.4 km/h 3.2 km/h 96 % 0.0 mm
23:23 6.3 °C 5.7 °C 1027.0 hPa South 2.1 km/h 3.2 km/h 96 % 0.0 mm
23:28 6.1 °C 5.5 °C 1027.0 hPa South 1.8 km/h 3.5 km/h 96 % 0.0 mm
23:33 6.0 °C 5.4 °C 1027.0 hPa South 3.5 km/h 3.5 km/h 96 % 0.0 mm
23:38 6.1 °C 5.5 °C 1027.0 hPa WSW 4.3 km/h 4.3 km/h 96 % 0.0 mm
23:43 6.3 °C 5.8 °C 1027.0 hPa Calm   5.0 km/h 97 % 0.0 mm
23:44 6.3 °C 5.8 °C 1027.0 hPa Calm   5.0 km/h 97 % 0.0 mm
23:49 6.2 °C 5.7 °C 1027.0 hPa Calm   5.0 km/h 97 % 0.0 mm
23:54 6.1 °C 5.6 °C 1027.0 hPa Calm   2.6 km/h 97 % 0.0 mm
23:59 6.0 °C 5.6 °C 1027.0 hPa Calm   2.6 km/h 97 % 0.0 mm
Le Gheer Warneton
Courtoisie de Weather Underground - 2.25 mb

Mise a jour : 16-12-17 15:55:11
Généré par Cumulus 1.9.4 (1099)